View from above orbital plane
|
View from above satellite
|
Ground track
|
The orbit data is extracted from the following two-line orbital elements,
1 07210U 74011B 21101.75592841 -.00000105 00000-0 -60921-4 0 9999
2 07210 81.2332 122.0629 0081016 12.7380 347.5813 14.13105268426677
Epoch (UTC): | 11 April 2021 18:08:32 |
Eccentricity: | 0.0081016 |
inclination: | 81.2332° |
perigee height: | 790 km |
apogee height: | 907 km |
right ascension of ascending node: | 122.0629° |
argument of perigee: | 12.7380° |
revolutions per day: | 14.13105268 |
mean anomaly at epoch: | 347.5813° |
orbit number at epoch: | 42667 |
The dashed part of the orbit path shows where the satellite is in the earth's shadow,
|
|